Regional Weather Roundup
Issued by NWS Boston, MA

Home | Current Version | Previous Version | Text Only | Print | Product List | Glossary On
Versions: 1 2 3 4 5 6 7 8 9 10 11 12 13 14 15 16 17 18 19 20 21 22 23 24 25 26 27 28 29 30 31 32 33 34 35 36 37 38 39 40 41 42 43 44 45 46 47 48 49 50
000
ASUS41 KBOX 270810
RWRBOX

REGIONAL WEATHER ROUNDUP
NATIONAL WEATHER SERVICE TAUNTON MA
300 AM EST THU NOV 27 2014

NOTE:  "FAIR" INDICATES FEW OR NO CLOUDS BELOW 12,000 FEET WITH NO
SIGNIFICANT WEATHER AND/OR OBSTRUCTIONS TO VISIBILITY.  THE FOLLOWING
OBSERVATION LOCATIONS DO NOT REPORT PRESENT WEATHER...PROVINCETOWN...
SMITHFIELD...BLOCK ISLAND...KEENE...AND OXFORD.

MAZALL-270900-
EASTERN MASSACHUSETTS

CITY           SKY/WX    TMP DP  RH WIND       PRES   REMARKS
BOSTON         LGT SNOW  33  31  92 NW18G24   29.74R FOG     WCI  22
BEVERLY        LGT SNOW  33  30  88 N16       29.73R FOG     WCI  23
LAWRENCE       LGT SNOW  33  32  96 NW7       29.77R FOG     WCI  27
BEDFORD        LGT SNOW  32  31  96 NW9       29.75R FOG     WCI  24
BLUE HILL      NOT AVBL
NORWOOD        LGT SNOW  33  31  92 NW9G17    29.75R FOG     WCI  25
MARSHFIELD     CLOUDY    36  34  93 NW16G26   29.72R FOG     WCI  26
PLYMOUTH       LGT SNOW  33  32  96 NW16G24   29.71R FOG     WCI  23
TAUNTON        LGT SNOW  33  31  92 NW10G23   29.73R FOG     WCI  25
NEW BEDFORD    MIX PCPN  33  32  96 N10G18    29.72R WCI  25
$$

MAZALL-270900-
CAPE COD AND THE ISLANDS

CITY           SKY/WX    TMP DP  RH WIND       PRES   REMARKS
FALMOUTH       LGT RAIN  34  34 100 NW12G21   29.69R WCI  25
HYANNIS        LGT RAIN  39  35  86 N22G43    29.62R WCI  29
CHATHAM        LGT SNOW  38  36  92 N12G31    29.61R FOG     WCI  30
PROVINCETOWN   CLOUDY    43  36  75 N26G39    29.66R
NANTUCKET      CLOUDY    41  36  82 N24G43    29.63R WCI  31
MARTHAS VNYRD  MIX PCPN  35  33  92 NW20G29   29.69R WCI  24
$$

MAZALL-270900-
CENTRAL AND WESTERN MASSACHUSETTS

CITY           SKY/WX    TMP DP  RH WIND       PRES   REMARKS
WORCESTER      LGT SNOW  30  28  92 NW13      29.74R FOG     WCI  20
FITCHBURG      FLURRIES  33  30  88 NW5       29.77S WCI  29
ORANGE           N/A    N/A N/A N/A MISG      29.80R
SPRINGFIELD    LGT RAIN  32  32 100 N10       29.81R WCI  24
WESTFIELD      LGT SNOW  33  31  92 CALM      29.82R FOG
NORTH ADAMS    LGT SNOW  28  26  92 W6        29.86S FOG     WCI  22
PITTSFIELD     CLOUDY    26  23  88 W5        29.81S WCI  20
$$

RIZALL-270900-
RHODE ISLAND

CITY           SKY/WX    TMP DP  RH WIND       PRES   REMARKS
PROVIDENCE     MIX PCPN  34  31  88 N15G22    29.77R WCI  24
NEWPORT        CLOUDY    35  31  85 NW18G28   29.75R WCI  24
BLOCK ISLAND   CLOUDY    36  30  80 N17G28    29.77R WCI  25
SMITHFIELD     CLOUDY    32  27  80 NW9       29.74R WCI  24
WESTERLY       CLOUDY    35  32  88 NW9       29.78R WCI  28
$$

CTZALL-270900-
CONNECTICUT

CITY           SKY/WX    TMP DP  RH WIND       PRES   REMARKS
BRADLEY INTL   FLURRIES  34  31  88 N5        29.82R WCI  30
HARTFORD       CLOUDY    34  31  88 VRB5      29.84R WCI  30
BRIDGEPORT     CLOUDY    35  29  78 NW7       29.87R WCI  29
DANBURY        CLOUDY    32  26  78 NW8       29.87R WCI  25
GROTON         CLOUDY    34  34 100 NW12G23   29.80R WCI  25
NEW HAVEN      CLOUDY    39  31  72 NW8       29.85R
CHESTER        CLOUDY    34  32  93 N10G18    29.81R WCI  26
MERIDEN        CLOUDY    35  30  82 NW5       29.84R WCI  31
WILLIMANTIC    MOCLDY    34  30  85 NW8       29.80R WCI  27
OXFORD         MOCLDY    30  25  80 NW8       29.85R WCI  23
$$

MEZ002-015-021-024-NHZ003-005-008-011-012-014-VTZ005-008-270900-
NORTHERN NEW ENGLAND

CITY           SKY/WX    TMP DP  RH WIND       PRES   REMARKS
PORTLAND ME    LGT SNOW  32  29  88 N22G30    29.73R FOG     WCI  19
BANGOR ME      LGT SNOW  29  27  92 N28G35    29.69F VSB 3/4 WCI  14
CONCORD NH     FLURRIES  31  30  96 NW9       29.77R WCI  23
MANCHESTER NH  LGT SNOW  33  30  88 NW9       29.75S VSB 1   WCI  25
NASHUA NH      LGT SNOW  33  32  96 NW5       29.77S FOG     WCI  28
PORTSMOUTH NH  LGT SNOW  32  30  92 NW14      29.72R VSB 1   WCI  22
JAFFREY NH     LGT SNOW  30  28  92 N5        29.76S FOG     WCI  25
KEENE NH         N/A    N/A N/A N/A MISG        N/A
BURLINGTON VT  LGT SNOW  29  25  85 N14       29.94F FOG     WCI  18
MT. WASHINGTON SNOW      12  12 100 N37G48      N/A  VSB 1/16WCI -11
$$

NYZ052-076-270900-
EASTERN NEW YORK

CITY           SKY/WX    TMP DP  RH WIND       PRES   REMARKS
ALBANY         LGT SNOW  30  27  88 N12       29.92S FOG     WCI  20
NEW YORK CITY  CLOUDY    37  30  75 N14       29.90R WCI  28
$$

ANZALL-270900-
MARINE OBSERVATIONS

STATION/POSITION TIME  TEMP    WIND        PRES    VSBY  WAVE
                       AIR SEA DIR/SP/G                  HT/PER
                 (UTC) (F)     (DEG/KT/KT) (MB)    (MI)  (FT/S)
BOSTON BUOY      0750   36 49  350/ 25/ 33 1004.9R
BUZZARDS BAY     0700          350/ 27/ 29 1005.3R
NANTUCKET SOUND  0750   41 47  340/ 27/ 33 1002.2R         7/ 6
MASS BAY-STELLWA 0704   38 51  350/ 31/ 39   N/A     0    15/11
ISLE OF SHOALS   0700   33     350/ 30/ 37 1004.6R
S OF BLOCK IS    0738      56                N/A          11/12
$$

......................KEY.........................
  SKY/WX - SKY CONDITION/PRESENT WEATHER
  TMP    - TEMPERATURE IN FAHRENHEIT
  DWPT   - DEWPOINT IN FAHRENHEIT
  RH     - RELATIVE HUMIDITY IN PERCENT
  WIND   - DIRECTION AND SPEED IN MPH
  PRES   - MEAN SEA LEVEL PRESSURE IN INCHES OF HG
  WCI    - WIND CHILL INDEX
  VSB    - VISIBILITY IN MILES
  HX     - HEAT INDEX
  TC     - TEMPERATURE IN CELSIUS
  VRB    - VARIABLE WIND DIRECTION
  N/A    - NOT AVAILABLE



USA.gov is the U.S. government's official web portal to all federal, state and local government web resources and services.